K5TWC Weather Reports


time (UTC)temp
C
wind
direction
speed
KPH
gust
KPH
rain 1hr
cm
rain 24hr
cm
rain mn
cm
humidity
%
barometer
mb
20260902060509 29 210 0.0 9.7 0.00 0.00 0.00 70 1016.0
20260902060038 29 190 1.6 11.3 0.00 0.00 0.00 70 1016.0
20260902055506 29 164 0.0 11.3 0.00 0.00 0.00 70 1016.0
20260902055004 29 188 0.0 6.4 0.00 0.00 0.00 69 1016.0
20260902054514 30 182 0.0 6.4 0.00 0.00 0.00 70 1015.9
20260902054009 30 200 0.0 4.8 0.00 0.00 0.00 69 1015.9
20260902053507 30 192 0.0 12.9 0.00 0.00 0.00 69 1015.9
20260902053021 30 193 0.0 12.9 0.00 0.00 0.00 69 1015.9
20260902052512 30 161 0.0 12.9 0.00 0.00 0.00 69 1015.9
20260902052012 30 173 1.6 12.9 0.00 0.00 0.00 68 1015.8
20260902051531 30 159 1.6 16.1 0.00 0.00 0.00 68 1015.7
20260902051009 30 179 4.8 16.1 0.00 0.00 0.00 68 1015.8
20260902050513 30 178 3.2 16.1 0.00 0.00 0.00 67 1015.8
20260902050032 30 177 6.4 14.5 0.00 0.00 0.00 67 1015.8
20260902045513 30 159 1.6 12.9 0.00 0.00 0.00 67 1015.8
20260902045014 30 167 0.0 8.0 0.00 0.00 0.00 67 1015.8
20260902044557 30 167 0.0 8.0 0.00 0.00 0.00 66 1015.7
20260902044008 30 187 0.0 12.9 0.00 0.00 0.00 66 1015.7
20260902043507 30 172 4.8 12.9 0.00 0.00 0.00 65 1015.6
20260902043016 30 133 0.0 12.9 0.00 0.00 0.00 65 1015.6
20260902042508 31 153 3.2 12.9 0.00 0.00 0.00 65 1015.6
20260902042016 31 209 1.6 12.9 0.00 0.00 0.00 65 1015.6
20260902041532 31 176 1.6 12.9 0.00 0.00 0.00 64 1015.5
20260902041015 31 192 0.0 14.5 0.00 0.00 0.00 64 1015.5
20260902040514 31 201 6.4 16.1 0.00 0.00 0.00 64 1015.5
20260902040029 31 165 4.8 16.1 0.00 0.00 0.00 63 1015.5
20260902035503 31 163 1.6 19.3 0.00 0.00 0.00 63 1015.4
20260902035003 31 157 6.4 20.9 0.00 0.00 0.00 62 1015.4
20260902034510 31 159 6.4 20.9 0.00 0.00 0.00 61 1015.3
20260902034004 31 217 6.4 22.5 0.00 0.00 0.00 59 1015.3
20260902033504 31 127 4.8 22.5 0.00 0.00 0.00 59 1015.2
20260902033014 31 128 4.8 11.3 0.00 0.00 0.00 61 1015.2
20260902032511 31 138 0.0 1.6 0.00 0.00 0.00 61 1015.1
20260902032011 31 138 0.0 1.6 0.00 0.00 0.00 60 1015.0
20260902031537 32 138 0.0 0.0 0.00 0.00 0.00 60 1015.0
20260902031012 32 138 0.0 0.0 0.00 0.00 0.00 59 1015.0
20260902030515 32 138 0.0 4.8 0.00 0.00 0.00 58 1014.9
20260902030024 32 138 0.0 8.0 0.00 0.00 0.00 58 1014.9
20260902025512 32 138 3.2 8.0 0.00 0.00 0.00 58 1014.7
20260902025012 32 140 0.0 3.2 0.00 0.00 0.00 58 1014.7
20260902024530 32 140 0.0 8.0 0.00 0.00 0.00 56 1014.7
20260902024007 32 140 0.0 8.0 0.00 0.00 0.00 56 1014.6
20260902023502 32 142 0.0 6.4 0.00 0.00 0.00 56 1014.5
20260902023020 32 140 1.6 8.0 0.00 0.00 0.00 56 1014.4
20260902022504 33 136 1.6 8.0 0.00 0.00 0.00 56 1014.4
20260902022009 33 134 1.6 8.0 0.00 0.00 0.00 56 1014.2
20260902021518 33 150 0.0 4.8 0.00 0.00 0.00 55 1014.1
20260902021010 33 150 0.0 8.0 0.00 0.00 0.00 55 1014.0
20260902020509 33 151 1.6 8.0 0.00 0.00 0.00 55 1014.0
20260902020024 33 165 0.0 1.6 0.00 0.00 0.00 55 1014.0
20260902015510 33 165 0.0 6.4 0.00 0.00 0.00 55 1013.8
20260902015010 33 165 0.0 6.4 0.00 0.00 0.00 55 1013.8
20260902014536 33 165 0.0 6.4 0.00 0.00 0.00 54 1013.7
20260902014012 33 166 0.0 6.4 0.00 0.00 0.00 55 1013.6
20260902013515 33 167 0.0 4.8 0.00 0.00 0.00 55 1013.6
20260902013032 33 167 0.0 4.8 0.00 0.00 0.00 55 1013.6
20260902012507 33 168 0.0 6.4 0.00 0.00 0.00 55 1013.6
20260902012003 34 167 0.0 6.4 0.00 0.00 0.00 56 1013.5
20260902011519 34 162 0.0 11.3 0.00 0.00 0.00 54 1013.5
20260902011007 34 158 0.0 11.3 0.00 0.00 0.00 53 1013.5
20260902010508 35 158 0.0 11.3 0.00 0.00 0.00 52 1013.5
20260902010019 35 161 1.6 11.3 0.00 0.00 0.00 50 1013.4
20260902005510 35 190 0.0 0.0 0.00 0.00 0.00 49 1013.4
20260902005010 35 190 0.0 0.0 0.00 0.00 0.00 49 1013.4
20260902004524 36 190 0.0 0.0 0.00 0.00 0.00 48 1013.4
20260902004012 36 190 0.0 0.0 0.00 0.00 0.00 48 1013.3
20260902003515 36 190 0.0 0.0 0.00 0.00 0.00 46 1013.4
20260902003029 36 190 0.0 0.0 0.00 0.00 0.00 46 1013.4
20260902002518 36 190 0.0 0.0 0.00 0.00 0.00 46 1013.5
20260902002014 36 190 0.0 0.0 0.00 0.00 0.00 46 1013.4
20260902001531 36 190 0.0 0.0 0.00 0.00 0.00 46 1013.5
20260902001006 36 190 0.0 0.0 0.00 0.00 0.00 47 1013.5
20260902000507 36 190 0.0 3.2 0.00 0.00 0.00 46 1013.6
20260902000015 36 188 0.0 3.2 0.00 0.00 0.00 46 1013.6
20260901235506 36 188 0.0 4.8 0.00 0.00 0.00 46 1013.5
20260901235008 36 190 0.0 8.0 0.00 0.00 0.00 46 1013.5
20260901234520 36 133 0.0 12.9 0.00 0.00 0.00 46 1013.6
20260901234008 36 126 0.0 12.9 0.00 0.00 0.00 45 1013.7
20260901233510 36 186 0.0 12.9 0.00 0.00 0.00 46 1013.7
20260901233028 36 153 0.0 11.3 0.00 0.00 0.00 46 1013.7
20260901232515 36 152 4.8 12.9 0.00 0.00 0.00 45 1013.8
20260901232015 36 150 3.2 12.9 0.00 0.00 0.00 45 1013.8
20260901231534 36 143 3.2 14.5 0.00 0.00 0.00 44 1013.9
20260901231015 36 159 1.6 14.5 0.00 0.00 0.00 44 1013.9
20260901230514 37 126 4.8 14.5 0.00 0.00 0.00 44 1013.9
20260901230029 37 150 1.6 12.9 0.00 0.00 0.00 44 1013.9
20260901225506 37 208 0.0 4.8 0.00 0.00 0.00 45 1013.9
20260901225007 36 207 0.0 8.0 0.00 0.00 0.00 46 1013.9
20260901224518 36 179 1.6 8.0 0.00 0.00 0.00 45 1013.9
20260901224015 36 189 0.0 8.0 0.00 0.00 0.00 45 1013.9
20260901223508 36 196 0.0 8.0 0.00 0.00 0.00 45 1013.9
20260901223023 36 175 0.0 6.4 0.00 0.00 0.00 44 1014.0
20260901222509 37 187 0.0 11.3 0.00 0.00 0.00 45 1013.9
20260901222017 37 175 0.0 12.9 0.00 0.00 0.00 45 1013.9
20260901221526 37 172 0.0 12.9 0.00 0.00 0.00 44 1014.0
20260901221014 37 152 4.8 11.3 0.00 0.00 0.00 43 1013.9
20260901220516 37 159 1.6 11.3 0.00 0.00 0.00 43 1014.0
20260901220032 37 157 1.6 11.3 0.00 0.00 0.00 43 1014.0
20260901215516 37 209 1.6 11.3 0.00 0.00 0.00 43 1014.1
20260901215019 37 175 0.0 9.7 0.00 0.00 0.00 42 1014.1
20260901214537 37 201 0.0 9.7 0.00 0.00 0.00 42 1014.1
20260901214007 38 173 1.6 11.3 0.00 0.00 0.00 43 1014.2
20260901213507 38 203 1.6 16.1 0.00 0.00 0.00 43 1014.2
20260901213026 38 159 4.8 16.1 0.00 0.00 0.00 43 1014.2
20260901212508 38 142 0.0 14.5 0.00 0.00 0.00 42 1014.3
20260901212016 38 159 4.8 16.1 0.00 0.00 0.00 42 1014.4
20260901211525 37 128 0.0 16.1 0.00 0.00 0.00 41 1014.4
20260901211013 37 116 4.8 14.5 0.00 0.00 0.00 42 1014.4
20260901210512 37 129 1.6 14.5 0.00 0.00 0.00 41 1014.4
20260901210027 37 140 0.0 14.5 0.00 0.00 0.00 42 1014.5
20260901205516 37 168 3.2 16.1 0.00 0.00 0.00 43 1014.5
20260901205016 37 120 3.2 16.1 0.00 0.00 0.00 43 1014.5
20260901204532 37 86 3.2 16.1 0.00 0.00 0.00 41 1014.5
20260901204018 37 114 1.6 16.1 0.00 0.00 0.00 42 1014.5
20260901203518 37 140 8.0 16.1 0.00 0.00 0.00 42 1014.7
20260901203033 37 136 3.2 16.1 0.00 0.00 0.00 43 1014.7
20260901202508 37 131 0.0 16.1 0.00 0.00 0.00 44 1014.7
20260901202011 37 128 11.3 16.1 0.00 0.00 0.00 44 1014.8
20260901201521 37 144 3.2 11.3 0.00 0.00 0.00 44 1014.9
20260901201013 37 168 1.6 8.0 0.00 0.00 0.00 45 1014.9
20260901200510 37 191 0.0 8.0 0.00 0.00 0.00 46 1014.9
20260901200028 36 134 0.0 4.8 0.00 0.00 0.00 46 1015.0
20260901195512 36 134 0.0 11.3 0.00 0.00 0.00 47 1015.2
20260901195015 36 119 0.0 12.9 0.00 0.00 0.00 47 1015.2
20260901194530 36 115 3.2 12.9 0.00 0.00 0.00 47 1015.4
20260901194016 36 124 3.2 12.9 0.00 0.00 0.00 47 1015.5
20260901193516 37 131 3.2 17.7 0.00 0.00 0.00 48 1015.5
20260901193034 36 146 0.0 17.7 0.00 0.00 0.00 48 1015.6
20260901192521 36 114 4.8 16.1 0.00 0.00 0.00 48 1015.6
20260901192003 36 137 0.0 16.1 0.00 0.00 0.00 49 1015.7
20260901191511 36 136 4.8 16.1 0.00 0.00 0.00 49 1015.8
20260901191001 36 165 3.2 9.7 0.00 0.00 0.00 49 1015.8
20260901190503 36 123 0.0 8.0 0.00 0.00 0.00 50 1015.9
20260901190004 36 134 0.0 8.0 0.00 0.00 0.00 49 1015.8
20260901185503 36 90 0.0 6.4 0.00 0.00 0.00 50 1015.9
20260901185003 36 75 0.0 11.3 0.00 0.00 0.00 50 1016.0
20260901184506 36 128 0.0 12.9 0.00 0.00 0.00 49 1016.1
20260901184003 36 110 4.8 16.1 0.00 0.00 0.00 49 1016.2
20260901183503 36 148 4.8 16.1 0.00 0.00 0.00 49 1016.3
20260901183021 36 128 1.6 14.5 0.00 0.00 0.00 49 1016.4
20260901182504 37 142 1.6 9.7 0.00 0.00 0.00 47 1016.5
20260901182006 37 139 3.2 9.7 0.00 0.00 0.00 46 1016.6
20260901181513 37 238 0.0 11.3 0.00 0.00 0.00 47 1016.7
20260901181008 37 171 1.6 11.3 0.00 0.00 0.00 47 1016.7
20260901180505 37 186 0.0 14.5 0.00 0.00 0.00 46 1016.8
20260901180009 37 222 0.0 14.5 0.00 0.00 0.00 46 1017.0
20260901175502 36 167 0.0 11.3 0.00 0.00 0.00 47 1017.0
20260901175002 37 156 1.6 11.3 0.00 0.00 0.00 47 1017.2
20260901174503 37 147 0.0 8.0 0.00 0.00 0.00 46 1017.3
20260901174005 37 235 0.0 8.0 0.00 0.00 0.00 47 1017.3
20260901173502 36 184 0.0 8.0 0.00 0.00 0.00 46 1017.4
20260901173006 36 198 0.0 6.4 0.00 0.00 0.00 48 1017.4
20260901172504 36 269 0.0 11.3 0.00 0.00 0.00 50 1017.5
20260901172016 35 144 1.6 14.5 0.00 0.00 0.00 50 1017.6
20260901171509 35 159 0.0 14.5 0.00 0.00 0.00 50 1017.6
20260901171004 35 170 0.0 11.3 0.00 0.00 0.00 51 1017.7
20260901170506 35 154 0.0 17.7 0.00 0.00 0.00 54 1017.7
20260901170036 35 126 3.2 17.7 0.00 0.00 0.00 53 1017.8
20260901165508 36 136 8.0 17.7 0.00 0.00 0.00 51 1017.8
20260901165005 36 187 0.0 4.8 0.00 0.00 0.00 51 1017.9
20260901164504 36 195 0.0 9.7 0.00 0.00 0.00 51 1017.9
20260901164003 36 178 1.6 9.7 0.00 0.00 0.00 52 1017.9
20260901163504 36 182 0.0 4.8 0.00 0.00 0.00 52 1017.9
20260901163003 36 177 0.0 4.8 0.00 0.00 0.00 53 1018.0
20260901162502 35 231 0.0 9.7 0.00 0.00 0.00 55 1018.0
20260901162014 35 190 0.0 11.3 0.00 0.00 0.00 55 1018.0
20260901161531 35 157 1.6 14.5 0.00 0.00 0.00 58 1018.0
20260901161016 35 125 4.8 14.5 0.00 0.00 0.00 56 1018.0
20260901160518 35 142 1.6 11.3 0.00 0.00 0.00 56 1017.9
20260901160037 35 175 0.0 12.9 0.00 0.00 0.00 57 1017.9
20260901155507 35 167 0.0 12.9 0.00 0.00 0.00 56 1017.9
20260901155007 35 126 3.2 11.3 0.00 0.00 0.00 56 1017.9
20260901154519 36 119 3.2 11.3 0.00 0.00 0.00 55 1017.9
20260901154009 36 221 0.0 3.2 0.00 0.00 0.00 54 1017.9
20260901153509 35 221 0.0 1.6 0.00 0.00 0.00 55 1017.9
20260901153028 35 221 0.0 3.2 0.00 0.00 0.00 56 1017.9
20260901152514 35 221 0.0 9.7 0.00 0.00 0.00 56 1017.9
20260901152015 34 225 0.0 9.7 0.00 0.00 0.00 57 1017.9
20260901151527 34 263 1.6 9.7 0.00 0.00 0.00 57 1017.8
20260901151015 33 221 0.0 8.0 0.00 0.00 0.00 59 1017.8
20260901150515 33 205 0.0 6.4 0.00 0.00 0.00 59 1017.9
20260901150033 33 209 0.0 8.0 0.00 0.00 0.00 62 1018.0
20260901145514 33 163 0.0 8.0 0.00 0.00 0.00 62 1018.0
20260901145013 33 163 3.2 9.7 0.00 0.00 0.00 61 1018.0
20260901144535 33 167 1.6 9.7 0.00 0.00 0.00 60 1018.1
20260901144012 33 183 0.0 4.8 0.00 0.00 0.00 61 1018.1
20260901143514 33 180 0.0 6.4 0.00 0.00 0.00 61 1018.1
20260901143020 33 184 0.0 6.4 0.00 0.00 0.00 61 1018.2
20260901142511 33 219 0.0 3.2 0.00 0.00 0.00 61 1018.1
20260901142008 33 184 0.0 4.8 0.00 0.00 0.00 62 1018.0
20260901141532 32 183 0.0 4.8 0.00 0.00 0.00 63 1018.0
20260901141018 32 183 0.0 4.8 0.00 0.00 0.00 63 1018.0
20260901140512 32 181 0.0 4.8 0.00 0.00 0.00 63 1017.9
20260901140030 32 191 0.0 1.6 0.00 0.00 0.00 64 1018.0
20260901135516 32 191 0.0 6.4 0.00 0.00 0.00 64 1018.0
20260901135014 32 190 0.0 6.4 0.00 0.00 0.00 65 1018.1
20260901134531 31 198 0.0 1.6 0.00 0.00 0.00 65 1018.2
20260901134015 31 198 0.0 3.2 0.00 0.00 0.00 66 1018.1
20260901133515 31 195 0.0 3.2 0.00 0.00 0.00 67 1018.1
20260901133038 30 193 0.0 1.6 0.00 0.00 0.00 69 1018.1
20260901132508 30 193 0.0 1.6 0.00 0.00 0.00 69 1018.1
20260901132013 30 190 0.0 1.6 0.00 0.00 0.00 71 1018.1
20260901131525 29 190 0.0 4.8 0.00 0.00 0.00 72 1018.1
20260901131014 29 190 0.0 4.8 0.00 0.00 0.00 73 1018.0
20260901130506 28 190 0.0 4.8 0.00 0.00 0.00 74 1018.0
20260901130007 28 198 0.0 4.8 0.00 0.00 0.00 75 1018.0
20260901125503 28 204 0.0 3.2 0.00 0.00 0.00 76 1017.8
20260901125003 27 204 0.0 3.2 0.00 0.00 0.00 77 1017.7
20260901124507 27 204 0.0 3.2 0.00 0.00 0.00 77 1017.7
20260901124003 27 205 0.0 3.2 0.00 0.00 0.00 78 1017.6
20260901123506 26 205 0.0 3.2 0.00 0.00 0.00 78 1017.5
20260901123028 26 205 0.0 1.6 0.00 0.00 0.00 78 1017.5
20260901122508 26 205 0.0 1.6 0.00 0.00 0.00 78 1017.4
20260901122007 26 206 0.0 0.0 0.00 0.00 0.00 78 1017.3
20260901121520 26 206 0.0 0.0 0.00 0.00 0.00 78 1017.3
20260901121013 26 206 0.0 0.0 0.00 0.00 0.00 77 1017.2
20260901120508 26 206 0.0 0.0 0.00 0.00 0.00 77 1017.1
20260901120024 26 206 0.0 0.0 0.00 0.00 0.00 77 1017.0
20260901115510 26 206 0.0 0.0 0.00 0.00 0.00 77 1017.0
20260901115003 26 206 0.0 0.0 0.00 0.00 0.00 76 1017.0
20260901114505 26 206 0.0 0.0 0.00 0.00 0.00 76 1016.9
20260901114003 26 206 0.0 0.0 0.00 0.00 0.00 76 1017.0
20260901113504 26 206 0.0 0.0 0.00 0.00 0.00 76 1016.9
20260901113008 26 206 0.0 1.6 0.00 0.00 0.00 76 1016.8
20260901112503 26 206 0.0 1.6 0.00 0.00 0.00 76 1016.8
20260901112007 26 206 0.0 1.6 0.00 0.00 0.00 75 1016.8
20260901111517 26 206 0.0 1.6 0.00 0.00 0.00 75 1016.7
20260901111007 27 206 0.0 1.6 0.00 0.00 0.00 75 1016.8
20260901110508 27 206 0.0 0.0 0.00 0.00 0.00 75 1016.7
20260901110022 27 206 0.0 1.6 0.00 0.00 0.00 74 1016.7
20260901105513 27 206 0.0 1.6 0.00 0.00 0.00 74 1016.7
20260901105010 27 206 0.0 1.6 0.00 0.00 0.00 73 1016.6
20260901104528 27 206 0.0 0.0 0.00 0.00 0.00 73 1016.6
20260901104004 27 206 0.0 0.0 0.00 0.00 0.00 73 1016.7
20260901103503 27 206 0.0 0.0 0.00 0.00 0.00 72 1016.7
20260901103005 27 206 0.0 1.6 0.00 0.00 0.00 72 1016.7
20260901102504 27 206 0.0 1.6 0.00 0.00 0.00 71 1016.8
20260901102003 27 206 0.0 0.0 0.00 0.00 0.00 71 1016.8
20260901101513 27 206 0.0 1.6 0.00 0.00 0.00 71 1016.8
20260901101007 27 206 0.0 4.8 0.00 0.00 0.00 71 1016.7
20260901100507 27 206 0.0 4.8 0.00 0.00 0.00 71 1016.8
20260901100018 27 212 0.0 4.8 0.00 0.00 0.00 71 1016.8
20260901095508 27 188 0.0 4.8 0.00 0.00 0.00 71 1016.9
20260901095008 27 188 0.0 4.8 0.00 0.00 0.00 70 1017.0
20260901094524 27 174 0.0 1.6 0.00 0.00 0.00 70 1016.9
20260901094014 28 172 0.0 1.6 0.00 0.00 0.00 70 1017.0
20260901093513 28 171 0.0 1.6 0.00 0.00 0.00 70 1017.0
20260901093028 28 171 0.0 1.6 0.00 0.00 0.00 69 1017.0
20260901092503 28 166 0.0 1.6 0.00 0.00 0.00 69 1017.0
20260901092003 28 165 0.0 8.0 0.00 0.00 0.00 69 1017.0
20260901091507 28 165 0.0 8.0 0.00 0.00 0.00 69 1017.0
20260901091003 28 159 0.0 6.4 0.00 0.00 0.00 69 1016.9
20260901090504 28 159 0.0 8.0 0.00 0.00 0.00 69 1016.8
20260901090017 28 159 0.0 8.0 0.00 0.00 0.00 69 1016.8
20260901085506 28 159 0.0 8.0 0.00 0.00 0.00 68 1016.7
20260901085008 28 157 0.0 8.0 0.00 0.00 0.00 68 1016.7
20260901084518 28 166 0.0 6.4 0.00 0.00 0.00 68 1016.7
20260901084010 28 167 0.0 6.4 0.00 0.00 0.00 68 1016.7
20260901083510 28 167 0.0 12.9 0.00 0.00 0.00 68 1016.7
20260901083028 28 169 1.6 12.9 0.00 0.00 0.00 67 1016.6
20260901082512 28 193 0.0 4.8 0.00 0.00 0.00 67 1016.6
20260901082016 28 195 0.0 1.6 0.00 0.00 0.00 66 1016.6
20260901081528 28 196 0.0 1.6 0.00 0.00 0.00 65 1016.6
20260901081004 29 196 0.0 8.0 0.00 0.00 0.00 64 1016.6
20260901080504 29 196 0.0 8.0 0.00 0.00 0.00 64 1016.5
20260901080010 29 199 0.0 6.4 0.00 0.00 0.00 63 1016.5
20260901075505 29 214 0.0 6.4 0.00 0.00 0.00 63 1016.5
20260901075010 29 219 0.0 6.4 0.00 0.00 0.00 63 1016.5
20260901074516 29 211 0.0 9.7 0.00 0.00 0.00 64 1016.5
20260901074012 29 193 0.0 9.7 0.00 0.00 0.00 63 1016.4
20260901073508 29 205 0.0 9.7 0.00 0.00 0.00 63 1016.5
20260901073035 30 198 1.6 9.7 0.00 0.00 0.00 63 1016.5
20260901072513 30 153 1.6 9.7 0.00 0.00 0.00 62 1016.5
20260901072012 30 181 3.2 11.3 0.00 0.00 0.00 62 1016.5
20260901071528 30 155 1.6 11.3 0.00 0.00 0.00 62 1016.5
20260901071014 30 155 0.0 11.3 0.00 0.00 0.00 62 1016.5
20260901070514 30 184 1.6 12.9 0.00 0.00 0.00 62 1016.4
20260901070032 30 161 3.2 12.9 0.00 0.00 0.00 61 1016.4
20260901065506 30 165 0.0 8.0 0.00 0.00 0.00 62 1016.5
20260901065006 30 167 0.0 11.3 0.00 0.00 0.00 61 1016.5
20260901064515 30 167 0.0 11.3 0.00 0.00 0.00 60 1016.4
20260901064006 30 158 0.0 4.8 0.00 0.00 0.00 60 1016.4
20260901063509 30 158 0.0 8.0 0.00 0.00 0.00 60 1016.4
20260901063022 30 157 0.0 8.0 0.00 0.00 0.00 60 1016.4
20260901062510 30 159 0.0 8.0 0.00 0.00 0.00 59 1016.3
20260901062013 30 160 0.0 11.3 0.00 0.00 0.00 59 1016.3
20260901061524 30 157 0.0 11.3 0.00 0.00 0.00 58 1016.2
20260901061012 30 163 0.0 12.9 0.00 0.00 0.00 58 1016.2